Location: M?digepalle
(16.1753°N, 80.3496°E)
Time: 09:02:35
(UTC+00:00)

Cosmos 1892 Rocket - Pass Details

Date: 29 October 2020
Orbit: 607 x 632 km, 82.5° (Epoch: 27 November)

Event Time Altitude Azimuth Distance (km) Brightness Sun altitude
Rises 23:30:30 0° 203° (SSW) 2,851 6.8 -16.0°
Reaches altitude 10° 23:32:53 10° 213° (SSW) 1,950 5.9 -15.4°
Maximum altitude 23:36:44 32° 276° (W) 1,046 4.2 -14.5°
Drops below altitude 10° 23:40:38 10° 340° (NNW) 1,961 5.8 -13.6°
Sets 23:43:02 0° 350° (N) 2,870 6.8 -13.0°
